TimeEDT,TemperatureF,Dew PointF,Humidity,Sea Level PressureIn,VisibilityMPH,Wind Direction,Wind SpeedMPH,Gust SpeedMPH,PrecipitationIn,Events,Conditions,WindDirDegrees,DateUTC
12:10 AM,82.4,69.8,66,30.16,10.0,Calm,Calm,-,N/A,,Mostly Cloudy,0,2013-07-18 04:10:00
12:30 AM,82.4,68.0,62,30.16,10.0,Calm,Calm,-,N/A,,Scattered Clouds,0,2013-07-18 04:30:00
12:50 AM,78.8,71.6,78,30.16,10.0,Calm,Calm,-,N/A,,Clear,0,2013-07-18 04:50:00
1:10 AM,78.8,71.6,78,30.16,10.0,Calm,Calm,-,N/A,,Clear,0,2013-07-18 05:10:00
1:30 AM,78.8,71.6,78,30.16,10.0,Calm,Calm,-,N/A,,Clear,0,2013-07-18 05:30:00
1:50 AM,78.8,71.6,78,30.15,10.0,Calm,Calm,-,N/A,,Clear,0,2013-07-18 05:50:00
2:10 AM,78.8,71.6,78,30.15,10.0,Calm,Calm,-,N/A,,Clear,0,2013-07-18 06:10:00
2:30 AM,78.8,71.6,78,30.14,10.0,Calm,Calm,-,N/A,,Clear,0,2013-07-18 06:30:00
2:50 AM,78.8,71.6,78,30.14,10.0,Calm,Calm,-,N/A,,Clear,0,2013-07-18 06:50:00
3:10 AM,78.8,71.6,78,30.13,10.0,Calm,Calm,-,N/A,,Clear,0,2013-07-18 07:10:00
3:30 AM,78.8,71.6,78,30.13,10.0,Calm,Calm,-,N/A,,Clear,0,2013-07-18 07:30:00
3:50 AM,77.0,71.6,83,30.13,10.0,Calm,Calm,-,N/A,,Clear,0,2013-07-18 07:50:00
4:10 AM,77.0,71.6,83,30.13,10.0,Calm,Calm,-,N/A,,Scattered Clouds,0,2013-07-18 08:10:00
4:30 AM,77.0,71.6,83,30.13,10.0,Calm,Calm,-,N/A,,Clear,0,2013-07-18 08:30:00
4:50 AM,78.8,71.6,78,30.13,10.0,Calm,Calm,-,N/A,,Clear,0,2013-07-18 08:50:00
5:10 AM,75.2,69.8,83,30.13,10.0,Calm,Calm,-,N/A,,Clear,0,2013-07-18 09:10:00
5:30 AM,75.2,69.8,83,30.14,10.0,Calm,Calm,-,N/A,,Clear,0,2013-07-18 09:30:00
5:50 AM,75.2,71.6,89,30.14,10.0,Calm,Calm,-,N/A,,Clear,0,2013-07-18 09:50:00
6:10 AM,75.2,69.8,83,30.14,10.0,Calm,Calm,-,N/A,,Clear,0,2013-07-18 10:10:00
6:30 AM,75.2,71.6,89,30.15,10.0,Calm,Calm,-,N/A,,Clear,0,2013-07-18 10:30:00
6:50 AM,75.2,71.6,89,30.15,10.0,Calm,Calm,-,N/A,,Clear,0,2013-07-18 10:50:00
7:10 AM,77.0,71.6,83,30.14,10.0,Calm,Calm,-,N/A,,Clear,0,2013-07-18 11:10:00
7:30 AM,78.8,71.6,78,30.14,10.0,Calm,Calm,-,N/A,,Clear,0,2013-07-18 11:30:00
7:50 AM,78.8,73.4,83,30.14,10.0,Calm,Calm,-,N/A,,Clear,0,2013-07-18 11:50:00
8:10 AM,82.4,73.4,74,30.15,10.0,North,4.6,-,N/A,,Clear,350,2013-07-18 12:10:00
8:30 AM,84.2,73.4,70,30.15,10.0,North,5.8,-,N/A,,Clear,350,2013-07-18 12:30:00
8:50 AM,84.2,75.2,74,30.16,10.0,NNW,5.8,-,N/A,,Clear,340,2013-07-18 12:50:00
9:10 AM,84.2,78.8,84,30.15,10.0,NNW,5.8,-,N/A,,Clear,340,2013-07-18 13:10:00
9:30 AM,87.8,75.2,66,30.15,10.0,North,6.9,-,N/A,,Clear,360,2013-07-18 13:30:00
9:50 AM,87.8,75.2,66,30.15,10.0,North,6.9,-,N/A,,Clear,360,2013-07-18 13:50:00
10:10 AM,87.8,78.8,75,30.15,10.0,NNW,4.6,-,N/A,,Clear,330,2013-07-18 14:10:00
10:30 AM,87.8,75.2,66,30.15,10.0,Calm,Calm,-,N/A,,Clear,0,2013-07-18 14:30:00
10:50 AM,87.8,78.8,75,30.15,10.0,Calm,Calm,-,N/A,,Clear,0,2013-07-18 14:50:00
11:30 AM,89.6,78.8,70,30.15,10.0,Calm,Calm,-,N/A,,Clear,0,2013-07-18 15:30:00
11:50 AM,91.4,78.8,66,30.14,10.0,Calm,Calm,-,N/A,,Clear,0,2013-07-18 15:50:00
12:10 PM,91.4,77.0,63,30.14,10.0,NW,4.6,-,N/A,,Scattered Clouds,310,2013-07-18 16:10:00
12:30 PM,91.4,78.8,66,30.14,10.0,WNW,5.8,-,N/A,,Scattered Clouds,300,2013-07-18 16:30:00
12:50 PM,91.4,73.4,55,30.13,10.0,North,3.5,-,N/A,,Clear,10,2013-07-18 16:50:00
1:15 PM,93.2,73.4,52,30.13,10.0,NW,3.5,-,N/A,,Scattered Clouds,320,2013-07-18 17:15:00
1:35 PM,93.2,73.4,52,30.12,10.0,Calm,Calm,-,N/A,,Clear,0,2013-07-18 17:35:00
1:55 PM,95.0,73.4,49,30.12,10.0,NNE,5.8,-,N/A,,Clear,20,2013-07-18 17:55:00
2:15 PM,93.2,71.6,49,30.11,10.0,NNW,3.5,-,N/A,,Scattered Clouds,330,2013-07-18 18:15:00
2:35 PM,93.2,73.4,52,30.10,10.0,Calm,Calm,-,N/A,,Clear,0,2013-07-18 18:35:00
2:55 PM,96.8,71.6,44,30.09,10.0,North,3.5,-,N/A,,Clear,350,2013-07-18 18:55:00
3:15 PM,96.8,71.6,44,30.09,10.0,SSW,3.5,-,N/A,,Clear,210,2013-07-18 19:15:00
3:35 PM,96.8,78.8,56,30.08,10.0,WSW,4.6,-,N/A,,Scattered Clouds,250,2013-07-18 19:35:00
3:55 PM,96.8,77.0,53,30.07,10.0,Calm,Calm,-,N/A,,Scattered Clouds,0,2013-07-18 19:55:00
4:15 PM,93.2,80.6,67,30.07,10.0,SW,6.9,-,N/A,,Mostly Cloudy,220,2013-07-18 20:15:00
4:35 PM,93.2,80.6,67,30.07,10.0,WSW,9.2,-,N/A,Thunderstorm,Scattered Clouds,250,2013-07-18 20:35:00
4:55 PM,93.2,73.4,52,30.07,10.0,SW,5.8,-,N/A,,Clear,230,2013-07-18 20:55:00
5:15 PM,95.0,75.2,53,30.06,10.0,SSW,6.9,-,N/A,,Clear,200,2013-07-18 21:15:00
5:35 PM,96.8,75.2,50,30.05,10.0,South,4.6,-,N/A,,Scattered Clouds,170,2013-07-18 21:35:00
5:55 PM,95.0,80.6,63,30.05,10.0,WSW,3.5,-,N/A,,Scattered Clouds,240,2013-07-18 21:55:00
6:15 PM,95.0,78.8,59,30.05,10.0,WSW,4.6,-,N/A,Thunderstorm,Clear,250,2013-07-18 22:15:00
6:35 PM,91.4,82.4,75,30.06,10.0,Calm,Calm,-,N/A,,Clear,0,2013-07-18 22:35:00
6:55 PM,91.4,78.8,66,30.07,10.0,NNE,4.6,-,N/A,,Clear,30,2013-07-18 22:55:00
7:15 PM,89.6,75.2,62,30.07,10.0,North,4.6,-,N/A,,Clear,350,2013-07-18 23:15:00
7:35 PM,87.8,73.4,62,30.08,10.0,Calm,Calm,-,N/A,,Clear,0,2013-07-18 23:35:00
7:55 PM,86.0,75.2,70,30.08,10.0,Calm,Calm,-,N/A,,Clear,0,2013-07-18 23:55:00
8:15 PM,87.8,73.4,62,30.07,10.0,Calm,Calm,-,N/A,,Clear,0,2013-07-19 00:15:00
8:35 PM,87.8,73.4,62,30.07,10.0,Calm,Calm,-,N/A,,Clear,0,2013-07-19 00:35:00
8:55 PM,87.8,73.4,62,30.06,10.0,Calm,Calm,-,N/A,,Clear,0,2013-07-19 00:55:00
9:15 PM,86.0,73.4,66,30.06,10.0,Calm,Calm,-,N/A,,Clear,0,2013-07-19 01:15:00
9:35 PM,87.8,73.4,62,30.06,10.0,Calm,Calm,-,N/A,,Clear,0,2013-07-19 01:35:00
9:55 PM,86.0,73.4,66,30.06,10.0,Calm,Calm,-,N/A,,Clear,0,2013-07-19 01:55:00
10:15 PM,84.2,73.4,70,30.06,10.0,Calm,Calm,-,N/A,,Clear,0,2013-07-19 02:15:00
10:35 PM,86.0,75.2,70,30.05,10.0,Calm,Calm,-,N/A,,Clear,0,2013-07-19 02:35:00
10:55 PM,84.2,75.2,74,30.05,10.0,Calm,Calm,-,N/A,,Clear,0,2013-07-19 02:55:00
11:15 PM,84.2,75.2,74,30.06,10.0,Calm,Calm,-,N/A,,Clear,0,2013-07-19 03:15:00
11:35 PM,84.2,75.2,74,30.05,10.0,Calm,Calm,-,N/A,,Clear,0,2013-07-19 03:35:00
11:55 PM,84.2,75.2,74,30.05,10.0,SW,6.9,-,N/A,,Clear,220,2013-07-19 03:55:00